Total_Precipitation_Accumulation
0.00 0.00 0.00 0.00 0.00 0.00 0.01 0.01 0.02 0.02 0.01 0.01 0.00 0.00 0.00 0.00 0.00 0.00 0.00 0.00 0.00 0.00 0.00 0.00 0.00 0.00 0.00 0.00 0.00 0.01 0.01 0.04 0.05 0.01 0.00 0.01 0.04 0.05 0.05 0.06 0.06 0.06 0.07
0.00 0.00 0.00 0.00 0.00 0.00 0.01 0.01 0.01 0.01 0.01 0.00 0.00 0.00 0.00 0.00 0.00 0.00 0.00 0.00 0.00 0.00 0.00 0.00 0.00 0.00 0.00 0.00 0.00 0.00 0.00 0.02 0.06 0.06 0.01 0.00 0.01 0.03 0.04 0.04 0.05 0.07 0.06
0.00 0.00 0.00 0.00 0.00 0.01 0.01 0.01 0.01 0.01 0.00 0.00 0.00 0.00 0.00 0.00 0.00 0.00 0.00 0.00 0.00 0.00 0.00 0.00 0.00 0.00 0.00 0.00 0.00 0.00 0.01 0.02 0.06 0.10 0.05 0.02 0.02 0.02 0.04 0.03 0.04 0.05 0.06
0.00 0.00 0.00 0.01 0.01 0.01 0.01 0.01 0.01 0.00 0.00 0.00 0.00 0.00 0.00 0.00 0.00 0.00 0.00 0.00 0.00 0.00 0.00 0.00 0.00 0.00 0.00 0.00 0.00 0.02 0.04 0.05 0.07 0.10 0.12 0.09 0.06 0.03 0.06 0.06 0.05 0.05 0.05
0.01 0.01 0.01 0.01 0.01 0.01 0.01 0.00 0.00 0.00 0.00 0.00 0.00 0.00 0.00 0.00 0.00 0.00 0.00 0.00 0.00 0.00 0.00 0.00 0.00 0.00 0.00 0.01 0.03 0.05 0.06 0.10 0.16 0.22 0.19 0.14 0.09 0.08 0.07 0.07 0.09 0.07 0.05
0.01 0.01 0.01 0.01 0.01 0.01 0.00 0.00 0.00 0.00 0.00 0.00 0.00 0.00 0.00 0.00 0.00 0.00 0.00 0.00 0.00 0.00 0.00 0.00 0.00 0.00 0.00 0.02 0.04 0.07 0.13 0.21 0.29 0.31 0.25 0.16 0.08 0.05 0.07 0.12 0.17 0.20 0.14
0.01 0.01 0.01 0.01 0.01 0.00 0.00 0.00 0.00 0.00 0.00 0.00 0.00 0.00 0.00 0.00 0.00 0.00 0.00 0.00 0.00 0.00 0.00 0.00 0.00 0.00 0.01 0.01 0.02 0.08 0.14 0.19 0.22 0.21 0.16 0.10 0.10 0.12 0.22 0.30 0.26 0.24 0.15
0.01 0.01 0.01 0.01 0.01 0.01 0.01 0.01 0.01 0.01 0.01 0.01 0.00 0.00 0.00 0.00 0.00 0.00 0.00 0.00 0.00 0.00 0.00 0.00 0.00 0.01 0.02 0.05 0.12 0.17 0.11 0.07 0.06 0.06 0.09 0.12 0.15 0.15 0.20 0.28 0.25 0.19 0.09
0.03 0.03 0.02 0.02 0.02 0.02 0.02 0.01 0.01 0.01 0.01 0.00 0.00 0.00 0.00 0.00 0.00 0.00 0.00 0.00 0.00 0.00 0.00 0.01 0.03 0.03 0.05 0.17 0.25 0.22 0.10 0.03 0.02 0.07 0.12 0.11 0.10 0.08 0.10 0.26 0.37 0.38 0.23
0.05 0.04 0.04 0.04 0.03 0.02 0.01 0.01 0.00 0.00 0.00 0.00 0.00 0.00 0.00 0.00 0.00 0.00 0.01 0.01 0.01 0.01 0.02 0.02 0.03 0.05 0.13 0.24 0.23 0.18 0.09 0.05 0.09 0.06 0.03 0.01 0.01 0.02 0.08 0.23 0.56 0.79 0.52
0.05 0.04 0.02 0.02 0.01 0.01 0.00 0.00 0.00 0.00 0.00 0.00 0.00 0.00 0.00 0.00 0.00 0.00 0.01 0.03 0.05 0.07 0.06 0.03 0.02 0.10 0.20 0.20 0.14 0.07 0.09 0.15 0.11 0.03 0.01 0.01 0.01 0.02 0.04 0.08 0.29 0.78 0.93
0.03 0.01 0.01 0.00 0.00 0.00 0.00 0.00 0.00 0.00 0.00 0.00 0.00 0.00 0.00 0.00 0.00 0.00 0.02 0.06 0.10 0.11 0.07 0.04 0.07 0.15 0.14 0.08 0.04 0.04 0.10 0.09 0.03 0.03 0.03 0.03 0.03 0.04 0.04 0.05 0.09 0.24 0.52
0.01 0.01 0.00 0.00 0.00 0.00 0.00 0.00 0.00 0.00 0.00 0.00 0.00 0.00 0.00 0.00 0.00 0.00 0.02 0.08 0.12 0.10 0.08 0.12 0.14 0.09 0.03 0.01 0.01 0.03 0.04 0.02 0.06 0.12 0.10 0.06 0.04 0.05 0.06 0.08 0.09 0.13 0.21
0.00 0.00 0.00 0.00 0.00 0.00 0.00 0.00 0.00 0.00 0.00 0.00 0.00 0.00 0.01 0.00 0.00 0.01 0.04 0.06 0.08 0.10 0.13 0.13 0.06 0.01 0.00 0.00 0.01 0.00 0.01 0.02 0.11 0.20 0.16 0.09 0.05 0.06 0.09 0.16 0.26 0.28 0.33
0.00 0.00 0.00 0.00 0.00 0.00 0.00 0.00 0.00 0.00 0.00 0.00 0.01 0.01 0.02 0.02 0.02 0.08 0.11 0.09 0.13 0.15 0.14 0.04 0.00 0.00 0.01 0.01 0.00 0.00 0.01 0.02 0.06 0.11 0.16 0.15 0.10 0.10 0.12 0.21 0.38 0.47 0.51
0.00 0.00 0.00 0.00 0.00 0.00 0.00 0.00 0.00 0.00 0.00 0.00 0.01 0.02 0.02 0.03 0.06 0.08 0.10 0.14 0.15 0.11 0.05 0.01 0.01 0.02 0.02 0.02 0.02 0.03 0.02 0.04 0.10 0.18 0.21 0.22 0.23 0.23 0.24 0.27 0.42 0.55 0.55
0.00 0.00 0.00 0.00 0.00 0.00 0.00 0.00 0.00 0.00 0.00 0.00 0.00 0.01 0.02 0.03 0.05 0.06 0.10 0.12 0.07 0.03 0.01 0.03 0.04 0.03 0.03 0.03 0.05 0.07 0.07 0.06 0.14 0.25 0.30 0.32 0.33 0.31 0.34 0.39 0.46 0.50 0.48
0.00 0.00 0.00 0.00 0.00 0.00 0.00 0.00 0.00 0.00 0.00 0.00 0.00 0.00 0.01 0.02 0.03 0.06 0.08 0.05 0.01 0.01 0.03 0.05 0.04 0.04 0.04 0.07 0.09 0.11 0.13 0.12 0.17 0.26 0.31 0.34 0.39 0.41 0.42 0.44 0.47 0.49 0.42
0.00 0.00 0.00 0.00 0.00 0.00 0.00 0.00 0.00 0.00 0.00 0.00 0.00 0.00 0.00 0.01 0.03 0.04 0.03 0.01 0.02 0.04 0.04 0.04 0.03 0.04 0.07 0.09 0.12 0.14 0.18 0.23 0.27 0.36 0.38 0.40 0.44 0.48 0.44 0.42 0.40 0.32 0.23
0.00 0.00 0.00 0.00 0.00 0.00 0.00 0.00 0.00 0.00 0.01 0.01 0.01 0.00 0.00 0.02 0.04 0.01 0.00 0.01 0.04 0.05 0.04 0.04 0.03 0.04 0.09 0.13 0.16 0.18 0.22 0.24 0.30 0.36 0.40 0.43 0.46 0.48 0.45 0.34 0.25 0.19 0.15
0.00 0.00 0.00 0.00 0.00 0.00 0.00 0.00 0.01 0.01 0.01 0.01 0.00 0.00 0.03 0.04 0.02 0.01 0.01 0.02 0.03 0.04 0.05 0.05 0.05 0.07 0.12 0.15 0.18 0.19 0.23 0.28 0.35 0.42 0.44 0.42 0.40 0.34 0.25 0.21 0.18 0.17 0.16
0.00 0.00 0.00 0.00 0.00 0.00 0.00 0.01 0.01 0.01 0.01 0.01 0.01 0.01 0.02 0.01 0.00 0.01 0.02 0.02 0.02 0.02 0.04 0.07 0.09 0.10 0.20 0.29 0.36 0.37 0.30 0.28 0.33 0.40 0.39 0.31 0.24 0.20 0.17 0.16 0.16 0.15 0.14
0.00 0.00 0.00 0.00 0.00 0.00 0.00 0.00 0.00 0.01 0.01 0.01 0.01 0.01 0.00 0.01 0.01 0.02 0.02 0.02 0.01 0.02 0.03 0.06 0.11 0.11 0.16 0.29 0.41 0.58 0.63 0.52 0.45 0.46 0.44 0.32 0.23 0.22 0.22 0.21 0.18 0.15 0.11
0.00 0.00 0.00 0.00 0.00 0.00 0.00 0.00 0.00 0.00 0.01 0.01 0.01 0.01 0.01 0.02 0.02 0.02 0.02 0.01 0.02 0.02 0.03 0.07 0.12 0.14 0.18 0.30 0.40 0.49 0.58 0.66 0.73 0.69 0.62 0.55 0.39 0.28 0.23 0.19 0.15 0.12 0.09
0.00 0.00 0.00 0.00 0.00 0.00 0.00 0.00 0.00 0.00 0.01 0.01 0.01 0.02 0.02 0.02 0.02 0.02 0.02 0.02 0.03 0.02 0.02 0.05 0.12 0.18 0.23 0.31 0.40 0.46 0.47 0.54 0.60 0.56 0.41 0.31 0.24 0.20 0.18 0.15 0.11 0.08 0.06
0.00 0.00 0.00 0.00 0.00 0.00 0.00 0.00 0.01 0.01 0.02 0.03 0.03 0.03 0.03 0.03 0.03 0.03 0.03 0.03 0.04 0.03 0.02 0.04 0.08 0.17 0.25 0.31 0.31 0.36 0.42 0.38 0.27 0.17 0.12 0.13 0.13 0.12 0.11 0.10 0.07 0.05 0.04